Dobrodošli na spletni strani vremenske postaje Senovo. Vse informacije so informativnega značaja, saj vremenska postaja ni del državne mreže meteoroloških postaj. AKTUALNIH OBVESTIL NI.


Sneg/Led Od: 23-02-2018 00:00 Do: 23:59 Opozorilo za: Sneg/Led Stopnja: Rumena info button

Pogled proti Armezu več informacij Pogled proti Armezu


Lisca več informacij Lisca


Radar strel več informacij blitzortung!


opozorilo za sneg/led več informacij rain snow radar


Obiščite še:

Template documentation
and downloads

And another site



Weather Underground, zgodovina - Tekstovno

Dnevni povzetek za Nil La, TWC- Enote:  Metrično    Angleško   Obe
« Predhodni Dan
Naslednji Dan »
Dnevni Tedenski Mesečni Letni Po meri
  Višja: Nižja: Povprečje:
Temperatura: -17.8 °C -18.1 °C -17.8 °C
Točka rosišča: -17.8 °C -19.7 °C -19.4 °C
Vlažnost: Humidity % 76 % 81 %
Hitrost vetra: 0 km/h 1 km/h 6.8 km/h
Sunki vetra: 0 km/h - -
Veter:- - East
Zračni tlak: 0 hPa 34269.7 hPa -
Padavine: 33.02 mm    
Historical Graphs
 
 
Tabelarni podarki za Nil La, TWC-
Čas Temperatura Točka rosišča Zračni tlak Veter Hitrost vetra Sunki vetra Vlažnost Intenziteta padavin (urna)
-17.8 °C -17.8 °C 0 hPa Calm     Humidity % 0 mm
00:04 -18.1 °C -19.7 °C 34303.6 hPa South 1.3 km/h 5.1 km/h 80 % 7.62 mm
00:09 -18.1 °C -19.7 °C 34303.6 hPa SE 3.9 km/h 11.6 km/h 80 % 7.62 mm
00:14 -18.1 °C -19.7 °C 34303.6 hPa ESE 5.6 km/h 11.6 km/h 80 % 7.62 mm
00:19 -18.1 °C -19.7 °C 34303.6 hPa ESE 4.7 km/h 11.1 km/h 80 % 7.62 mm
00:24 -18.1 °C -19.7 °C 34303.6 hPa East 5.1 km/h 15.6 km/h 80 % 7.62 mm
00:29 -18.1 °C -19.6 °C 34303.6 hPa ENE 5.6 km/h 15.6 km/h 81 % 7.62 mm
00:34 -18.1 °C -19.6 °C 34303.6 hPa ENE 4.7 km/h 15.6 km/h 81 % 7.62 mm
00:39 -18.1 °C -19.7 °C 34303.6 hPa ESE 5 km/h 9.8 km/h 81 % 7.62 mm
00:44 -18.1 °C -19.7 °C 34303.6 hPa ESE 5.5 km/h 11.1 km/h 81 % 7.62 mm
00:49 -18.1 °C -19.7 °C 34303.6 hPa NE 4.7 km/h 11.1 km/h 81 % 7.62 mm
00:54 -18.1 °C -19.6 °C 34303.6 hPa ENE 6.4 km/h 10.3 km/h 81 % 7.62 mm
00:59 -18.1 °C -19.6 °C 34303.6 hPa ESE 5.5 km/h 14.5 km/h 81 % 7.62 mm
01:04 -18.1 °C -19.6 °C 34303.6 hPa ENE 5.1 km/h 14.5 km/h 81 % 7.62 mm
01:09 -18.1 °C -19.6 °C 34303.6 hPa ESE 6.9 km/h 14 km/h 81 % 7.62 mm
01:14 -18.1 °C -19.6 °C 34303.6 hPa ESE 6.8 km/h 16.3 km/h 82 % 7.62 mm
01:19 -18.1 °C -19.6 °C 34303.6 hPa ESE 6.3 km/h 16.3 km/h 82 % 7.62 mm
01:24 -18.1 °C -19.6 °C 34303.6 hPa WNW 4.2 km/h 10.3 km/h 82 % 7.62 mm
01:29 -18.1 °C -19.6 °C 34303.6 hPa South 3.7 km/h 7.6 km/h 82 % 7.62 mm
01:34 -18.1 °C -19.6 °C 34303.6 hPa SSE 5 km/h 10.3 km/h 82 % 7.62 mm
01:39 -18.1 °C -19.6 °C 34303.6 hPa SSE 4.7 km/h 10.3 km/h 82 % 7.62 mm
01:44 -18.1 °C -19.6 °C 34303.6 hPa SE 4.3 km/h 10.3 km/h 82 % 7.62 mm
01:49 -18.1 °C -19.6 °C 34303.6 hPa SE 6 km/h 11.1 km/h 82 % 7.62 mm
01:54 -18.1 °C -19.6 °C 34303.6 hPa ESE 5.6 km/h 11.1 km/h 82 % 7.62 mm
01:59 -18.1 °C -19.6 °C 34303.6 hPa NNE 3.9 km/h 11.1 km/h 82 % 7.62 mm
02:04 -18.1 °C -19.6 °C 34303.6 hPa NW 3.9 km/h 8.9 km/h 82 % 7.62 mm
02:09 -18.1 °C -19.6 °C 34303.6 hPa SSW 3.4 km/h 8.9 km/h 82 % 7.62 mm
02:14 -18.1 °C -19.6 °C 34303.6 hPa SW 3.7 km/h 10.3 km/h 82 % 7.62 mm
02:19 -18.1 °C -19.5 °C 34303.6 hPa WSW 5.6 km/h 10.3 km/h 83 % 7.62 mm
02:24 -18.1 °C -19.5 °C 34303.6 hPa WSW 4.3 km/h 8.9 km/h 83 % 7.62 mm
02:29 -18.1 °C -19.5 °C 34303.6 hPa East 4.2 km/h 12.2 km/h 83 % 7.62 mm
02:34 -18.1 °C -19.5 °C 34303.6 hPa East 4.3 km/h 12.7 km/h 83 % 0 mm
02:39 -18.1 °C -19.5 °C 34303.6 hPa ENE 5.5 km/h 14 km/h 83 % 0 mm
02:44 -18 °C -19.4 °C 34303.6 hPa NNE 7.2 km/h 14 km/h 83 % 0 mm
02:49 -18 °C -19.4 °C 34303.6 hPa NE 5.6 km/h 12.2 km/h 83 % 0 mm
02:54 -18 °C -19.4 °C 34269.7 hPa ENE 6.4 km/h 20.9 km/h 83 % 0 mm
02:59 -17.9 °C -19.3 °C 34269.7 hPa ENE 10.1 km/h 24.8 km/h 83 % 0 mm
03:04 -17.9 °C -19.3 °C 34269.7 hPa ENE 10.1 km/h 24.8 km/h 83 % 0 mm
03:09 -17.9 °C -19.3 °C 34269.7 hPa NE 9.3 km/h 26.7 km/h 83 % 0 mm
03:14 -17.9 °C -19.3 °C 34269.7 hPa NE 9.3 km/h 26.7 km/h 83 % 0 mm
03:19 -17.9 °C -19.3 °C 34269.7 hPa ENE 7.7 km/h 19.6 km/h 83 % 0 mm
03:24 -17.9 °C -19.4 °C 34269.7 hPa NE 8.5 km/h 23 km/h 82 % 0 mm
03:29 -17.9 °C -19.4 °C 34269.7 hPa ENE 10.1 km/h 23 km/h 82 % 0 mm
03:34 -17.9 °C -19.4 °C 34269.7 hPa NE 9.7 km/h 22 km/h 82 % 0 mm
03:39 -17.9 °C -19.4 °C 34269.7 hPa NE 8.5 km/h 22.5 km/h 82 % 0 mm
03:44 -17.9 °C -19.4 °C 34269.7 hPa NE 9.3 km/h 33.6 km/h 82 % 0 mm
03:49 -17.9 °C -19.4 °C 34269.7 hPa ENE 11.4 km/h 33.6 km/h 82 % 0 mm
03:54 -17.9 °C -19.4 °C 34269.7 hPa ENE 12.4 km/h 23 km/h 82 % 0 mm
03:59 -17.9 °C -19.4 °C 34269.7 hPa ENE 10.6 km/h 23 km/h 82 % 0 mm
04:04 -18 °C -19.5 °C 34269.7 hPa ENE 7.7 km/h 22 km/h 82 % 0 mm
04:09 -18 °C -19.6 °C 34269.7 hPa ENE 9.7 km/h 29 km/h 81 % 0 mm
04:14 -18 °C -19.6 °C 34269.7 hPa NE 10.9 km/h 29 km/h 81 % 0 mm
04:19 -17.9 °C -19.6 °C 34269.7 hPa NE 11.6 km/h 27.7 km/h 81 % 0 mm
04:24 -18 °C -19.6 °C 34269.7 hPa NE 14 km/h 27.7 km/h 81 % 0 mm
04:29 -18 °C -19.6 °C 34269.7 hPa NE 12.7 km/h 26.7 km/h 81 % 7.62 mm
04:34 -18 °C -19.6 °C 34269.7 hPa ENE 11.4 km/h 26.7 km/h 81 % 7.62 mm
04:39 -18 °C -19.6 °C 34269.7 hPa ENE 12.2 km/h 26.7 km/h 81 % 7.62 mm
04:44 -18.1 °C -19.6 °C 34269.7 hPa NE 9.8 km/h 20.9 km/h 81 % 7.62 mm
04:49 -18.1 °C -19.6 °C 34269.7 hPa NE 9.3 km/h 22.5 km/h 81 % 7.62 mm
04:54 -18.1 °C -19.6 °C 34269.7 hPa NE 11.9 km/h 22.5 km/h 81 % 7.62 mm
04:59 -18.1 °C -19.6 °C 34269.7 hPa ENE 12.4 km/h 27.7 km/h 81 % 7.62 mm
05:04 -18.1 °C -19.6 °C 34269.7 hPa NE 10.1 km/h 27.7 km/h 81 % 7.62 mm
05:09 -18.1 °C -19.6 °C 34269.7 hPa NE 8.5 km/h 22 km/h 81 % 7.62 mm
05:14 -18.1 °C -19.6 °C 34269.7 hPa NNE 6.9 km/h 22 km/h 81 % 7.62 mm
05:19 -18.1 °C -19.6 °C 34269.7 hPa NNE 5.1 km/h 14.5 km/h 81 % 7.62 mm
05:24 -18.1 °C -19.6 °C 34269.7 hPa NE 7.2 km/h 14.5 km/h 81 % 7.62 mm
05:29 -18.1 °C -19.6 °C 34269.7 hPa ENE 8 km/h 15.6 km/h 81 % 7.62 mm
05:34 -18.1 °C -19.6 °C 34269.7 hPa NE 8.2 km/h 15.6 km/h 81 % 7.62 mm
05:39 -18.1 °C -19.6 °C 34269.7 hPa NNE 9.3 km/h 17.9 km/h 81 % 7.62 mm
05:44 -18.1 °C -19.6 °C 34269.7 hPa NNE 9.8 km/h 22.5 km/h 81 % 7.62 mm
05:49 -18.1 °C -19.6 °C 34269.7 hPa NE 7.6 km/h 22.5 km/h 81 % 7.62 mm
05:54 -18.1 °C -19.6 °C 34269.7 hPa ENE 7.2 km/h 18.7 km/h 81 % 7.62 mm
05:59 -18.1 °C -19.6 °C 34269.7 hPa ENE 6.3 km/h 18.7 km/h 81 % 7.62 mm
06:05 -18.1 °C -19.6 °C 34269.7 hPa NNE 5 km/h 14.5 km/h 81 % 7.62 mm
06:09 -18.1 °C -19.6 °C 34269.7 hPa NNE 7.6 km/h 15 km/h 81 % 7.62 mm
06:14 -18.1 °C -19.6 °C 34269.7 hPa NNE 8.2 km/h 15 km/h 81 % 7.62 mm
06:19 -18.1 °C -19.6 °C 34269.7 hPa NE 8.5 km/h 15 km/h 81 % 7.62 mm
06:24 -18.1 °C -19.6 °C 34269.7 hPa NE 7.7 km/h 15 km/h 81 % 7.62 mm
06:29 -18.1 °C -19.6 °C 34269.7 hPa ENE 5.1 km/h 11.6 km/h 81 % 7.62 mm
06:34 -18.1 °C -19.6 °C 34269.7 hPa ENE 3.9 km/h 9.8 km/h 81 % 7.62 mm
06:39 -18.1 °C -19.6 °C 34269.7 hPa East 2.9 km/h 9.8 km/h 81 % 0 mm
06:44 -18.1 °C -19.6 °C 34269.7 hPa ESE 3.4 km/h 9.8 km/h 81 % 0 mm
06:49 -18.1 °C -19.6 °C 34269.7 hPa ENE 5.1 km/h 10.3 km/h 81 % 0 mm
06:54 -18.1 °C -19.6 °C 34269.7 hPa ENE 6.3 km/h 16.9 km/h 81 % 0 mm
06:59 -18.1 °C -19.6 °C 34269.7 hPa East 7.2 km/h 16.9 km/h 81 % 0 mm
07:04 -18.1 °C -19.6 °C 34269.7 hPa NE 6 km/h 12.7 km/h 81 % 7.62 mm
07:09 -18.1 °C -19.6 °C 34303.6 hPa NE 5.6 km/h 12.7 km/h 81 % 7.62 mm
07:14 -18.1 °C -19.6 °C 34303.6 hPa ENE 6.4 km/h 12.2 km/h 81 % 7.62 mm
07:19 -18.1 °C -19.6 °C 34303.6 hPa NE 4.2 km/h 9.3 km/h 82 % 7.62 mm
07:24 -18.1 °C -19.6 °C 34337.4 hPa NE 3.9 km/h 12.2 km/h 82 % 7.62 mm
07:29 -18.1 °C -19.6 °C 34337.4 hPa ENE 4.3 km/h 12.2 km/h 82 % 7.62 mm
07:34 -18.1 °C -19.6 °C 34337.4 hPa South 3.1 km/h 8 km/h 82 % 7.62 mm
07:40 -18.1 °C -19.6 °C 34303.6 hPa SE 5.1 km/h 15.6 km/h 82 % 7.62 mm
07:45 -18.1 °C -19.6 °C 34303.6 hPa SE 7.7 km/h 15.6 km/h 82 % 7.62 mm
07:50 -18 °C -19.5 °C 34303.6 hPa SE 6 km/h 14.5 km/h 82 % 7.62 mm
07:55 -18 °C -19.5 °C 34303.6 hPa ESE 4.3 km/h 9.8 km/h 82 % 7.62 mm
08:00 -18 °C -19.5 °C 34303.6 hPa SE 4.7 km/h 15 km/h 82 % 7.62 mm
08:05 -18 °C -19.5 °C 34303.6 hPa SSE 6 km/h 15 km/h 82 % 0 mm
08:10 -18 °C -19.5 °C 34303.6 hPa SW 4.3 km/h 11.1 km/h 82 % 0 mm
08:15 -17.9 °C -19.4 °C 34303.6 hPa SSE 3.7 km/h 9.3 km/h 82 % 0 mm
08:20 -17.9 °C -19.4 °C 34303.6 hPa SE 4.2 km/h 9.3 km/h 82 % 0 mm
08:25 -17.9 °C -19.4 °C 34303.6 hPa SE 2.1 km/h 6.4 km/h 82 % 0 mm
08:30 -17.9 °C -19.4 °C 34303.6 hPa SW 1 km/h 8 km/h 82 % 7.62 mm
08:35 -17.9 °C -19.4 °C 34303.6 hPa ESE 3.4 km/h 12.7 km/h 82 % 7.62 mm
08:40 -17.8 °C -19.3 °C 34303.6 hPa East 4.2 km/h 12.7 km/h 82 % 7.62 mm
08:45 -17.8 °C -19.3 °C 34303.6 hPa ENE 5.1 km/h 14 km/h 82 % 7.62 mm
08:50 -17.8 °C -19.3 °C 34303.6 hPa NE 7.7 km/h 14.5 km/h 82 % 7.62 mm
08:55 -17.8 °C -19.3 °C 34269.7 hPa NNE 7.7 km/h 15.6 km/h 82 % 7.62 mm
09:00 -17.8 °C -19.3 °C 34269.7 hPa NE 6.3 km/h 15.6 km/h 82 % 7.62 mm
09:05 -17.8 °C -19.3 °C 34269.7 hPa ESE 5.1 km/h 15 km/h 82 % 7.62 mm
09:10 -17.8 °C -19.3 °C 34269.7 hPa East 6.4 km/h 14 km/h 82 % 7.62 mm
09:15 -17.8 °C -19.3 °C 34269.7 hPa South 7.6 km/h 14 km/h 82 % 7.62 mm
09:20 -17.8 °C -19.3 °C 34269.7 hPa SSE 6 km/h 10.3 km/h 82 % 7.62 mm
09:25 -17.8 °C -19.3 °C 34303.6 hPa SE 5.5 km/h 9.8 km/h 82 % 7.62 mm
09:30 -17.8 °C -19.3 °C 34303.6 hPa NE 5.5 km/h 9.3 km/h 82 % 0 mm
09:35 -17.7 °C -19.2 °C 34303.6 hPa NE 6 km/h 11.1 km/h 82 % 0 mm
09:40 -17.7 °C -19.2 °C 34269.7 hPa ENE 6.9 km/h 11.1 km/h 82 % 0 mm
09:45 -17.7 °C -19.2 °C 34269.7 hPa ESE 8 km/h 16.9 km/h 82 % 0 mm
09:50 -17.7 °C -19.2 °C 34269.7 hPa East 9.8 km/h 19.6 km/h 82 % 0 mm
09:55 -17.7 °C -19.2 °C 34303.6 hPa ENE 8.5 km/h 19.6 km/h 82 % 0 mm
10:00 -17.7 °C -19.2 °C 34303.6 hPa ESE 5 km/h 14 km/h 82 % 0 mm
10:05 -17.6 °C -19.1 °C 34303.6 hPa East 5.5 km/h 12.7 km/h 82 % 0 mm
10:10 -17.6 °C -19.2 °C 34303.6 hPa ENE 7.2 km/h 12.7 km/h 81 % 0 mm
10:15 -17.6 °C -19.2 °C 34303.6 hPa ENE 7.2 km/h 11.1 km/h 81 % 0 mm
10:20 -17.6 °C -19.2 °C 34303.6 hPa East 7.6 km/h 19.2 km/h 81 % 0 mm
10:25 -17.6 °C -19.2 °C 34303.6 hPa ESE 7.6 km/h 19.2 km/h 81 % 0 mm
10:30 -17.5 °C -19.1 °C 34303.6 hPa East 6.4 km/h 15.6 km/h 81 % 0 mm
10:35 -17.4 °C -19.1 °C 34303.6 hPa ENE 5.1 km/h 11.1 km/h 81 % 0 mm
10:40 -17.3 °C -18.9 °C 34303.6 hPa East 5.1 km/h 9.8 km/h 81 % 0 mm
10:45 -17.3 °C -18.9 °C 34303.6 hPa East 6.4 km/h 18.7 km/h 81 % 0 mm
10:50 -17.3 °C -18.9 °C 34303.6 hPa East 8.9 km/h 26.7 km/h 81 % 0 mm
10:55 -17.2 °C -18.8 °C 34337.4 hPa East 9.8 km/h 26.7 km/h 81 % 0 mm
11:00 -17.2 °C -18.9 °C 34337.4 hPa East 6.9 km/h 16.9 km/h 80 % 0 mm
11:05 -17.2 °C -18.8 °C 34337.4 hPa ENE 6 km/h 16.9 km/h 80 % 0 mm
11:10 -17.1 °C -18.8 °C 34337.4 hPa East 6 km/h 9.8 km/h 80 % 0 mm
11:15 -17 °C -18.7 °C 34337.4 hPa East 5 km/h 16.3 km/h 80 % 0 mm
11:20 -17 °C -18.7 °C 34337.4 hPa ESE 6 km/h 16.3 km/h 80 % 0 mm
11:25 -17 °C -18.7 °C 34337.4 hPa ESE 6 km/h 14 km/h 80 % 0 mm
11:30 -17 °C -18.7 °C 34337.4 hPa East 5.6 km/h 20.9 km/h 80 % 0 mm
11:35 -17.1 °C -18.8 °C 34337.4 hPa East 8.9 km/h 20.9 km/h 79 % 0 mm
11:40 -17.1 °C -18.8 °C 34303.6 hPa East 9.3 km/h 19.6 km/h 79 % 0 mm
11:45 -17.1 °C -18.8 °C 34303.6 hPa East 7.2 km/h 15.6 km/h 79 % 0 mm
11:50 -17 °C -18.8 °C 34303.6 hPa East 6.8 km/h 15 km/h 79 % 0 mm
11:55 -17 °C -18.8 °C 34303.6 hPa East 8.9 km/h 20.9 km/h 79 % 0 mm
12:01 -17 °C -18.8 °C 34303.6 hPa East 9.7 km/h 20.9 km/h 79 % 0 mm
12:05 -17 °C -18.8 °C 34303.6 hPa East 6.8 km/h 15 km/h 79 % 0 mm
12:11 -17 °C -18.8 °C 34303.6 hPa ENE 6.4 km/h 20.3 km/h 79 % 0 mm
12:16 -16.9 °C -18.8 °C 34303.6 hPa East 9.3 km/h 20.3 km/h 78 % 0 mm
12:21 -16.9 °C -18.8 °C 34303.6 hPa ENE 9 km/h 16.9 km/h 78 % 0 mm
12:26 -16.9 °C -18.8 °C 34303.6 hPa ENE 7.2 km/h 14.5 km/h 78 % 0 mm
12:31 -16.9 °C -18.8 °C 34303.6 hPa East 7.6 km/h 14.5 km/h 78 % 0 mm
12:36 -17 °C -18.9 °C 34303.6 hPa ENE 8.2 km/h 15 km/h 78 % 0 mm
12:41 -17.1 °C -19.1 °C 34337.4 hPa NE 8.2 km/h 15.6 km/h 77 % 0 mm
12:46 -17.1 °C -19.1 °C 34337.4 hPa ENE 7.7 km/h 15.6 km/h 77 % 0 mm
12:51 -17.2 °C -19.2 °C 34337.4 hPa ENE 7.6 km/h 19.2 km/h 77 % 0 mm
12:56 -17.2 °C -19.2 °C 34337.4 hPa NE 9.3 km/h 19.2 km/h 77 % 0 mm
13:01 -17.2 °C -19.2 °C 34337.4 hPa ENE 8.5 km/h 16.9 km/h 77 % 0 mm
13:06 -17.1 °C -19.1 °C 34337.4 hPa East 6.8 km/h 22.5 km/h 76 % 0 mm
13:11 -17 °C -19.1 °C 34337.4 hPa East 7.6 km/h 22.5 km/h 76 % 0 mm
Vremenska postaja Senovo
Podatki zbrani iz Weather Underground - 2.25 mb

Script developed by  Jim McMurry - jmcmurry@mwt.net Adapted for the template by  Wim van der Kuil - Leuven-Template.eu

Vremenski podatki so objavljeni na:

European Weather Network

WeatherCloud

Weather Underground

AWEKAS

HAMweather, WeatherForYou, PWS Weather

MapView

Geostik

Slovenia weather network

Oprema, ki se uporablja:

Vremenski program
Cumulus

Vremenski server
Asus

Cumulus

Asus